This is the latest recevied weather packets stored in our database for station/object WX4LTG. If no packets are shown the sender has not sent any weather packets the latest 10 day(s).
| Time | Temp. | Humidity | Pressure | Rain* | Wind** | Luminosity | Snow |
|---|---|---|---|---|---|---|---|
| 1777141881 | 26.11° C | 24% | 1010.4 hPa | 0 mm | - | 351 W/m² | - |
| 1777141578 | 25.56° C | 24% | 1010.2 hPa | 0 mm | - | 294 W/m² | - |
| 1777141277 | 25.56° C | 24% | 1010.4 hPa | 0 mm | - | 274 W/m² | - |
| 1777140973 | 25.56° C | 24% | 1010.4 hPa | 0 mm | - | 308 W/m² | - |
| 1777140670 | 25.56° C | 24% | 1010.4 hPa | 0 mm | - | 355 W/m² | - |
| 1777140366 | 25.56° C | 24% | 1010.5 hPa | 0 mm | - | 325 W/m² | - |
| 1777140064 | 25.56° C | 24% | 1010.4 hPa | 0 mm | - | 293 W/m² | - |
| 1777139761 | 25° C | 24% | 1010.6 hPa | 0 mm | - | 260 W/m² | - |
| 1777139457 | 25.56° C | 24% | 1010.2 hPa | 0 mm | - | 248 W/m² | - |
| 1777139152 | 25.56° C | 24% | 1010.5 hPa | 0 mm | - | 254 W/m² | - |
| 1777138850 | 25.56° C | 25% | 1010.4 hPa | 0 mm | - | 256 W/m² | - |
| 1777138545 | 25.56° C | 24% | 1010.3 hPa | 0 mm | - | 275 W/m² | - |
| 1777138242 | 25° C | 25% | 1010.3 hPa | 0 mm | - | 308 W/m² | - |
| 1777137938 | 25.56° C | 25% | 1010.2 hPa | 0 mm | - | 301 W/m² | - |
| 1777137634 | 25° C | 26% | 1010.4 hPa | 0 mm | - | 299 W/m² | - |
| 1777137332 | 25° C | 26% | 1010.1 hPa | 0 mm | - | 320 W/m² | - |
| 1777137028 | 25° C | 26% | 1010.3 hPa | 0 mm | - | 312 W/m² | - |
| 1777136724 | 25° C | 26% | 1010.2 hPa | 0 mm | - | 323 W/m² | - |
| 1777136422 | 25.56° C | 25% | 1010 hPa | 0 mm | - | 355 W/m² | - |
| 1777136119 | 25° C | 26% | 1010.3 hPa | 0 mm | - | 315 W/m² | - |
| 1777135816 | 25° C | 26% | 1010.3 hPa | 0 mm | - | 299 W/m² | - |
| 1777135511 | 25° C | 26% | 1010.1 hPa | 0 mm | - | 274 W/m² | - |
| 1777135208 | 25° C | 27% | 1010.1 hPa | 0 mm | - | 274 W/m² | - |
| 1777134905 | 24.44° C | 27% | 1009.9 hPa | 0 mm | - | 289 W/m² | - |
| 1777134602 | 24.44° C | 26% | 1010.1 hPa | 0 mm | - | 331 W/m² | - |
* Rain latest hour (hover to see other rain measurements)
** Current wind speed in m/s (hover to see current wind gust speed)